Location: Elbart
(49.6135°N, 11.9134°E)
Time: 18:30:19
(UTC+00:00)

Meteor 2-10 Rocket - Pass Details

Date: 09 April 2020
Orbit: 734 x 885 km, 81.2° (Epoch: 04 June)

Event Time Altitude Azimuth Distance (km) Brightness Sun altitude
Exits shadow 20:33:52 53° 158° (SSE) 965 3.6 -22.7°
Maximum altitude 20:34:59 70° 98° (E) 849 3.5 -22.8°
Drops below altitude 10° 20:40:26 10° 16° (NNE) 2,431 6.5 -23.4°
Sets 20:42:54 0° 14° (NNE) 3,392 7.3 -23.7°
